Miscellaneous Local Product
Issued by NWS Hastings, NE

Home | Current Version | Previous Version | Text Only | Print | Product List | Glossary On
Versions: 1 2 3 4 5 6 7 8 9 10 11 12 13 14 15 16 17 18 19 20 21 22 23 24 25 26 27 28 29 30 31 32 33 34 35 36 37 38 39 40 41 42 43 44 45 46 47 48 49 50
000
AXUS43 KGID 250602
MISGRI

GID CWA HOURLY WEATHER ROUNDUP
NATIONAL WEATHER SERVICE HASTINGS NE
100 AM CDT MON SEP 25 2017

NOTE: "FAIR" INDICATES FEW OR NO CLOUDS BELOW 12,000 FEET WITH NO
SIGNIFICANT WEATHER AND/OR OBSTRUCTIONS TO VISIBILITY.

...SOUTH CENTRAL NEBRASKA...

CITY           SKY/WX    TMP DP  RH WIND       PRES   REMARKS
GRAND ISLAND   CLOUDY    55  55 100 NE10      29.99F
HASTINGS       LGT RAIN  56  55  97 NE14      29.97F
KEARNEY        RAIN      54  53  97 N12       30.00R
ORD            LGT RAIN  53  50  89 NE5       30.02F
YORK           CLOUDY    57  57 100 N15G21    29.97S
AURORA         CLOUDY    55  55  98 N16       29.99R
LEXINGTON      RAIN      54  51  91 NE10      30.00R
HOLDREGE       RAIN      54  52  95 NE14      29.97R
HEBRON         CLOUDY    65  63  94 NE3       29.91S

...NEBRASKA PANHANDLE...

CITY           SKY/WX    TMP DP  RH WIND       PRES   REMARKS
CHADRON        CLOUDY    47  42  83 NE9       30.09S
ALLIANCE       CLOUDY    45  43  93 NE9       30.06S
SCOTTSBLUFF    CLOUDY    47  43  86 E6        30.08R
SIDNEY         CLOUDY    46  45  96 NE10      30.07R FOG

...WESTERN AND NORTH CENTRAL NEBRASKA...

CITY           SKY/WX    TMP DP  RH WIND       PRES   REMARKS
VALENTINE      CLOUDY    50  48  93 N10       30.08R FOG
AINSWORTH      CLOUDY    49  49  98 N9        30.06S
ONEILL         RAIN      51  51 100 N10       30.04S
BROKEN BOW     CLOUDY    52  51  97 N12       30.00F
IMPERIAL       LGT RAIN  51  49  92 N10       30.06R
NORTH PLATTE   CLOUDY    51  49  92 NE15G23   30.01S
MCCOOK         LGT RAIN  54  53  97 NE16      29.95F

...EASTERN NEBRASKA...

CITY           SKY/WX    TMP DP  RH WIND       PRES   REMARKS
NORFOLK        LGT RAIN  54  53  97 N12       30.00R
SO SIOUX CITY  LGT RAIN  57  57 100 N8        29.97S
TEKAMAH        LGT RAIN  60  59  96 N7        29.94F
COLUMBUS       CLOUDY    57  55  93 N8        29.99S
ALBION         LGT RAIN  55  53  95 NW8       30.02R
OMAHA EPPLEY   CLOUDY    64  59  83 NW8       29.94F
OFFUTT AFB     CLOUDY    65  60  82 W10       29.95R
MILLARD        TSTM      65  63  93 W7        29.97R
LINCOLN        LGT RAIN  63  62  97 NE9       29.94S
NEBRASKA CITY  CLOUDY    67  66  95 NW14G23   29.96R
BEATRICE       CLOUDY    68  67  95 E7        29.91S
FALLS CITY     PTCLDY    72  65  78 S6        29.90R

...NORTHERN KANSAS...

CITY           SKY/WX    TMP DP  RH WIND       PRES   REMARKS
GOODLAND       RAIN      53  52  96 NW13      29.99R
HILL CITY      LGT RAIN  58  57  97 NE9       29.93R
NORTON         DRIZZLE   55  52  88 NE14      29.91F
PHILLIPSBURG   HVY RAIN  59  59 100 N9        29.93R
HAYS           CLOUDY    64  62  93 NE5       29.89S
RUSSELL        CLOUDY    73  60  63 S7        29.87R
CONCORDIA      CLEAR     65  65 100 E6        29.89F
SALINA         CLEAR     72  66  81 SE7       29.88F
TOPEKA         PTCLDY    75  68  78 SE8       29.90F



USA.gov is the U.S. government's official web portal to all federal, state and local government web resources and services.